FENGYUN 1C DEB

Satellite information

Favourite Embed

Satellite Type and Status

DEBRISIN ORBIT

Key statistics

Satellite FENGYUN 1C DEB at a glance.

Uptime

9616

Days in orbit

Revolutions

≈ 14.1

Per day

Orbit

SSO

Sun Synchronous Orbit

Inclination

99.1

Latest

Satellite identification and parameters

Extended collection of information and parameters for FENGYUN 1C DEB.

Object identification

Identified? True

Debris? True

Object name: FENGYUN 1C DEB

International designator: 1999-025QB

Object number (NORAD): 30074

Object ID (CCSDS): 30074

Country: PEOPLES REPUBLIC OF CHINA (PRC)

Current information (Y/N): Y

RCS size: SMALL

Orbital parameters

Period: 101.975 minutes

Inclination: 99.1361 deg

SMA: 7230.287 km

Apoapsis: 922.832 km

Periapsis: 781.473 km

RAAN: 308.4011 deg

Eccentricy: 0.00977546

Argument of periapsis: 80.807 deg

Mean anomaly: 280.4143 deg

Mean motion: 14.12112876 rev/day

Mean motion (dot): 0.00004209 rev/day2

B* drag term: 0.0022162468 1/REarth

Two-line elements (TLE)

Creation date: Sept. 1, 2025, 10:16 a.m.

Reference frame: TEME

Reference center: EARTH

Epoch: Sept. 1, 2025, 3 a.m. UTC

TLE line 0: 0 FENGYUN 1C DEB

TLE line 1: 1 30074U 99025QB 25244.12561622 .00004209 00000-0 22162-2 0 9991

TLE line 2: 2 30074 99.1361 308.4011 0097755 80.8070 280.4143 14.12112876952133

Live tracking on map

Real-time ground track for satellite FENGYUN 1C DEB.

In-orbit conjunctions

A list of the most updated potential collisions computed for object FENGYUN 1C DEB.

Target Orbit TCA Probability of collision Miss distance Type
COSMOS 970 DEB LEO 2025-01-06 02:55:24 0.0009202748 55.0 (m) DEBRIS
CZ-6A DEB SSO 2024-11-16 13:02:29 0.000165436 463.0 (m) DEBRIS

Associated space launch

Chinese polar orbiting meteorological satellite

FENGYUN 1C DEB was lifted into orbit during the mission ‘Long March 4B | Feng Yun 1C’, on board a Long March 4B space rocket.

The launch took place on May 10, 1999, 1:33 a.m. from Launch Complex 7.

For more information about the launch, click the button.

Launch to space Long March 4B | Feng Yun 1C
Long March 4B | Feng Yun 1C

Agency: N/A

Status: Launch Successful

Launch date: May 10, 1999, 1:33 a.m. UTC

Rocket: Long March 4B

Launch pad: Launch Complex 7

Location: Taiyuan Satellite Launch Center, People's Republic of China

...

Latest news about this satellite

There are no fresh news available about this satellite. Check back as we update our databases every day.


Newsletter sign-up

Weekly statistics, charts and insights to help you stay on top of the space industry.